contact:dominique.lefevre@mio.osupytheas.fr, maurice.libes@osupytheas.fr, didier.mallarino@osupytheas.fr
Project:EMSO http://www.emso-fr.org/EMSO-France
Depth: 2436.0 m
Title:EMSO Ligure Ouest : Data MII capteur MICROCAT
DateTime_Computer,Latitude,Longitude,Temperature,Conductivity,Pressure,DateTime_Instrument
DateTime_Computer,Latitude,Longitude,degC,S m-1,dbar,DateTime_Instrument
2020-11-16T00:01:24Z,42.805,6.029,13.2988,4.59993,2470.11,2020-11-16T02:02:21Z
2020-11-16T00:04:27Z,42.805,6.029,13.2991,4.60000,2470.087,2020-11-16T02:05:24Z
2020-11-16T00:07:30Z,42.805,6.029,13.2991,4.59990,2470.1,2020-11-16T02:08:27Z
2020-11-16T00:10:34Z,42.805,6.029,13.2987,4.59996,2470.124,2020-11-16T02:11:30Z
2020-11-16T00:13:37Z,42.805,6.029,13.2981,4.59991,2470.077,2020-11-16T02:14:33Z
2020-11-16T00:16:40Z,42.805,6.029,13.2985,4.60001,2470.063,2020-11-16T02:17:36Z
2020-11-16T00:19:43Z,42.805,6.029,13.2990,4.60001,2470.063,2020-11-16T02:20:39Z
2020-11-16T00:22:46Z,42.805,6.029,13.2990,4.60010,2470.077,2020-11-16T02:23:43Z
2020-11-16T00:25:49Z,42.805,6.029,13.2986,4.59991,2470.087,2020-11-16T02:26:46Z
2020-11-16T00:28:52Z,42.805,6.029,13.2995,4.59998,2470.077,2020-11-16T02:29:49Z
2020-11-16T00:31:55Z,42.805,6.029,13.2987,4.59988,2470.087,2020-11-16T02:32:52Z
2020-11-16T00:34:59Z,42.805,6.029,13.2987,4.59998,2470.04,2020-11-16T02:35:55Z
2020-11-16T00:38:02Z,42.805,6.029,13.2984,4.59991,2470.053,2020-11-16T02:38:58Z
2020-11-16T00:41:05Z,42.805,6.029,13.2989,4.59988,2470.063,2020-11-16T02:42:01Z
2020-11-16T00:44:08Z,42.805,6.029,13.2982,4.59997,2470.03,2020-11-16T02:45:04Z
2020-11-16T00:47:11Z,42.805,6.029,13.2982,4.59995,2470.03,2020-11-16T02:48:08Z
2020-11-16T00:50:14Z,42.805,6.029,13.2983,4.59983,2470.017,2020-11-16T02:51:11Z
2020-11-16T00:53:17Z,42.805,6.029,13.2990,4.59994,2470.077,2020-11-16T02:54:14Z
2020-11-16T00:56:20Z,42.805,6.029,13.2991,4.59995,2470.063,2020-11-16T02:57:17Z
2020-11-16T00:59:23Z,42.805,6.029,13.2991,4.59994,2470.04,2020-11-16T03:00:20Z
2020-11-16T01:02:27Z,42.805,6.029,13.2976,4.59993,2470.04,2020-11-16T03:03:23Z
2020-11-16T01:05:30Z,42.805,6.029,13.2982,4.59986,2470.087,2020-11-16T03:06:26Z
2020-11-16T01:08:33Z,42.805,6.029,13.2988,4.60002,2470.077,2020-11-16T03:09:29Z
2020-11-16T01:11:36Z,42.805,6.029,13.2986,4.59991,2470.04,2020-11-16T03:12:33Z
2020-11-16T01:14:39Z,42.805,6.029,13.2991,4.60001,2470.063,2020-11-16T03:15:36Z
2020-11-16T01:17:42Z,42.805,6.029,13.2985,4.59991,2470.04,2020-11-16T03:18:39Z
2020-11-16T01:20:45Z,42.805,6.029,13.2986,4.59996,2470.017,2020-11-16T03:21:42Z
2020-11-16T01:23:48Z,42.805,6.029,13.2981,4.59999,2470.017,2020-11-16T03:24:45Z
2020-11-16T01:26:52Z,42.805,6.029,13.2996,4.59995,2470.077,2020-11-16T03:27:48Z
2020-11-16T01:29:55Z,42.805,6.029,13.2998,4.60020,2470.04,2020-11-16T03:30:51Z
2020-11-16T01:32:58Z,42.805,6.029,13.2980,4.59997,2470.04,2020-11-16T03:33:54Z
2020-11-16T01:36:01Z,42.805,6.029,13.2983,4.59998,2470.04,2020-11-16T03:36:58Z
2020-11-16T01:39:04Z,42.805,6.029,13.2981,4.59986,2470.04,2020-11-16T03:40:01Z
2020-11-16T01:42:07Z,42.805,6.029,13.2986,4.59995,2470.017,2020-11-16T03:43:04Z
2020-11-16T01:45:10Z,42.805,6.029,13.2983,4.59994,2470.026,2020-11-16T03:46:07Z
2020-11-16T01:48:13Z,42.805,6.029,13.2986,4.60004,2470.04,2020-11-16T03:49:10Z
2020-11-16T01:51:17Z,42.805,6.029,13.2988,4.59995,2470.017,2020-11-16T03:52:13Z
2020-11-16T01:54:20Z,42.805,6.029,13.2990,4.60010,2470.03,2020-11-16T03:55:16Z
2020-11-16T01:57:23Z,42.805,6.029,13.2979,4.60010,2470.017,2020-11-16T03:58:19Z
2020-11-16T02:00:26Z,42.805,6.029,13.2989,4.59990,2470.03,2020-11-16T04:01:22Z
2020-11-16T02:03:29Z,42.805,6.029,13.2991,4.60007,2470.03,2020-11-16T04:04:26Z
2020-11-16T02:06:32Z,42.805,6.029,13.2995,4.60008,2470.053,2020-11-16T04:07:29Z
2020-11-16T02:09:35Z,42.805,6.029,13.2985,4.60000,2470.017,2020-11-16T04:10:32Z
2020-11-16T02:12:38Z,42.805,6.029,13.2986,4.60006,2470.077,2020-11-16T04:13:35Z
2020-11-16T02:15:42Z,42.805,6.029,13.2988,4.59988,2470.017,2020-11-16T04:16:38Z
2020-11-16T02:18:45Z,42.805,6.029,13.2992,4.60001,2470.04,2020-11-16T04:19:41Z
2020-11-16T02:21:48Z,42.805,6.029,13.3014,4.60021,2470.053,2020-11-16T04:22:44Z
2020-11-16T02:24:51Z,42.805,6.029,13.2990,4.59990,2470.03,2020-11-16T04:25:47Z
2020-11-16T02:27:54Z,42.805,6.029,13.2986,4.60006,2470.03,2020-11-16T04:28:51Z
2020-11-16T02:30:57Z,42.805,6.029,13.2998,4.59996,2470.04,2020-11-16T04:31:54Z
2020-11-16T02:34:00Z,42.805,6.029,13.2980,4.60004,2470.053,2020-11-16T04:34:57Z
2020-11-16T02:37:03Z,42.805,6.029,13.2989,4.59996,2470.063,2020-11-16T04:38:00Z
2020-11-16T02:40:06Z,42.805,6.029,13.2978,4.59992,2470.017,2020-11-16T04:41:03Z
2020-11-16T02:43:10Z,42.805,6.029,13.2982,4.60003,2470.03,2020-11-16T04:44:06Z
2020-11-16T02:46:13Z,42.805,6.029,13.2981,4.59993,2470.04,2020-11-16T04:47:09Z
2020-11-16T02:49:16Z,42.805,6.029,13.2986,4.60000,2470.03,2020-11-16T04:50:12Z
2020-11-16T02:52:19Z,42.805,6.029,13.2981,4.59988,2470.053,2020-11-16T04:53:16Z
2020-11-16T02:55:22Z,42.805,6.029,13.2983,4.59986,2470.017,2020-11-16T04:56:19Z
2020-11-16T02:58:25Z,42.805,6.029,13.2989,4.59990,2470.04,2020-11-16T04:59:22Z
2020-11-16T03:01:28Z,42.805,6.029,13.2991,4.59991,2470.04,2020-11-16T05:02:25Z
2020-11-16T03:04:31Z,42.805,6.029,13.2998,4.60007,2470.04,2020-11-16T05:05:28Z
2020-11-16T03:07:35Z,42.805,6.029,13.2996,4.59996,2470.077,2020-11-16T05:08:31Z
2020-11-16T03:10:38Z,42.805,6.029,13.3004,4.59994,2470.04,2020-11-16T05:11:34Z
2020-11-16T03:13:41Z,42.805,6.029,13.2999,4.60019,2470.053,2020-11-16T05:14:37Z
2020-11-16T03:16:44Z,42.805,6.029,13.2986,4.59987,2470.053,2020-11-16T05:17:41Z
2020-11-16T03:19:47Z,42.805,6.029,13.2986,4.59996,2470.04,2020-11-16T05:20:44Z
2020-11-16T03:22:50Z,42.805,6.029,13.2982,4.60001,2470.077,2020-11-16T05:23:47Z
2020-11-16T03:25:53Z,42.805,6.029,13.2983,4.59993,2470.063,2020-11-16T05:26:50Z
2020-11-16T03:28:56Z,42.805,6.029,13.2985,4.59996,2470.1,2020-11-16T05:29:53Z
2020-11-16T03:32:00Z,42.805,6.029,13.2990,4.59994,2470.087,2020-11-16T05:32:56Z
2020-11-16T03:35:03Z,42.805,6.029,13.2984,4.59991,2470.063,2020-11-16T05:35:59Z
2020-11-16T03:38:06Z,42.805,6.029,13.2987,4.60003,2470.063,2020-11-16T05:39:02Z
2020-11-16T03:41:09Z,42.805,6.029,13.2982,4.59996,2470.077,2020-11-16T05:42:06Z
2020-11-16T03:44:12Z,42.805,6.029,13.2993,4.60011,2470.1,2020-11-16T05:45:09Z
2020-11-16T03:47:15Z,42.805,6.029,13.2982,4.60000,2470.087,2020-11-16T05:48:12Z
2020-11-16T03:50:18Z,42.805,6.029,13.2987,4.59999,2470.087,2020-11-16T05:51:15Z
2020-11-16T03:53:21Z,42.805,6.029,13.2982,4.60004,2470.087,2020-11-16T05:54:18Z
2020-11-16T03:56:25Z,42.805,6.029,13.2983,4.59995,2470.063,2020-11-16T05:57:21Z
2020-11-16T03:59:28Z,42.805,6.029,13.2982,4.60001,2470.124,2020-11-16T06:00:24Z
2020-11-16T04:02:31Z,42.805,6.029,13.2994,4.60003,2470.11,2020-11-16T06:03:27Z
2020-11-16T04:05:34Z,42.805,6.029,13.2992,4.59989,2470.124,2020-11-16T06:06:31Z
2020-11-16T04:08:37Z,42.805,6.029,13.2989,4.59984,2470.087,2020-11-16T06:09:34Z
2020-11-16T04:11:40Z,42.805,6.029,13.2979,4.60006,2470.147,2020-11-16T06:12:37Z
2020-11-16T04:14:43Z,42.805,6.029,13.2987,4.60009,2470.147,2020-11-16T06:15:40Z
2020-11-16T04:17:46Z,42.805,6.029,13.2987,4.60008,2470.133,2020-11-16T06:18:43Z
2020-11-16T04:20:50Z,42.805,6.029,13.2992,4.59999,2470.11,2020-11-16T06:21:46Z
2020-11-16T04:23:53Z,42.805,6.029,13.2991,4.60014,2470.133,2020-11-16T06:24:49Z
2020-11-16T04:26:56Z,42.805,6.029,13.2991,4.59990,2470.171,2020-11-16T06:27:52Z
2020-11-16T04:29:59Z,42.805,6.029,13.2987,4.60005,2470.147,2020-11-16T06:30:55Z
2020-11-16T04:33:02Z,42.805,6.029,13.2984,4.59999,2470.133,2020-11-16T06:33:59Z
2020-11-16T04:36:05Z,42.805,6.029,13.2992,4.60017,2470.147,2020-11-16T06:37:02Z
2020-11-16T04:39:08Z,42.805,6.029,13.3008,4.60011,2470.147,2020-11-16T06:40:05Z
2020-11-16T04:42:11Z,42.805,6.029,13.2993,4.60021,2470.147,2020-11-16T06:43:08Z
2020-11-16T04:45:15Z,42.805,6.029,13.2993,4.60008,2470.133,2020-11-16T06:46:11Z
2020-11-16T04:48:18Z,42.805,6.029,13.2989,4.60010,2470.171,2020-11-16T06:49:14Z
2020-11-16T04:51:21Z,42.805,6.029,13.3003,4.60019,2470.194,2020-11-16T06:52:17Z
2020-11-16T04:54:24Z,42.805,6.029,13.3002,4.60007,2470.18,2020-11-16T06:55:20Z
2020-11-16T04:57:27Z,42.805,6.029,13.3003,4.60014,2470.171,2020-11-16T06:58:24Z
2020-11-16T05:00:30Z,42.805,6.029,13.3004,4.60012,2470.171,2020-11-16T07:01:27Z
2020-11-16T05:03:33Z,42.805,6.029,13.3000,4.59999,2470.18,2020-11-16T07:04:30Z
2020-11-16T05:06:36Z,42.805,6.029,13.3006,4.60000,2470.217,2020-11-16T07:07:33Z
2020-11-16T05:09:39Z,42.805,6.029,13.2993,4.60006,2470.18,2020-11-16T07:10:36Z
2020-11-16T05:12:43Z,42.805,6.029,13.2992,4.59991,2470.194,2020-11-16T07:13:39Z
2020-11-16T05:15:46Z,42.805,6.029,13.3001,4.60034,2470.217,2020-11-16T07:16:42Z
2020-11-16T05:18:49Z,42.805,6.029,13.2998,4.60012,2470.156,2020-11-16T07:19:45Z
2020-11-16T05:21:52Z,42.805,6.029,13.3003,4.59986,2470.203,2020-11-16T07:22:49Z
2020-11-16T05:24:55Z,42.805,6.029,13.2995,4.60013,2470.18,2020-11-16T07:25:52Z
2020-11-16T05:27:58Z,42.805,6.029,13.2993,4.60003,2470.18,2020-11-16T07:28:55Z
2020-11-16T05:31:01Z,42.805,6.029,13.2994,4.60003,2470.24,2020-11-16T07:31:58Z
2020-11-16T05:34:05Z,42.805,6.029,13.2981,4.60023,2470.203,2020-11-16T07:35:01Z
2020-11-16T05:37:08Z,42.805,6.029,13.2999,4.60022,2470.203,2020-11-16T07:38:04Z
2020-11-16T05:40:11Z,42.805,6.029,13.2996,4.60006,2470.217,2020-11-16T07:41:07Z
2020-11-16T05:43:14Z,42.805,6.029,13.3003,4.60003,2470.227,2020-11-16T07:44:10Z
2020-11-16T05:46:17Z,42.805,6.029,13.2995,4.60021,2470.227,2020-11-16T07:47:14Z
2020-11-16T05:49:20Z,42.805,6.029,13.3000,4.60022,2470.227,2020-11-16T07:50:17Z
2020-11-16T05:52:23Z,42.805,6.029,13.2987,4.60000,2470.227,2020-11-16T07:53:20Z
2020-11-16T05:55:26Z,42.805,6.029,13.2982,4.60009,2470.24,2020-11-16T07:56:23Z
2020-11-16T05:58:29Z,42.805,6.029,13.2994,4.60014,2470.273,2020-11-16T07:59:26Z
2020-11-16T06:01:33Z,42.805,6.029,13.2999,4.60003,2470.264,2020-11-16T08:02:29Z
2020-11-16T06:04:36Z,42.805,6.029,13.3000,4.60014,2470.287,2020-11-16T08:05:32Z
2020-11-16T06:07:39Z,42.805,6.029,13.2997,4.60015,2470.264,2020-11-16T08:08:35Z
2020-11-16T06:10:42Z,42.805,6.029,13.2990,4.59988,2470.227,2020-11-16T08:11:39Z
2020-11-16T06:13:45Z,42.805,6.029,13.2986,4.60007,2470.25,2020-11-16T08:14:42Z
2020-11-16T06:16:48Z,42.805,6.029,13.2995,4.59998,2470.25,2020-11-16T08:17:45Z
2020-11-16T06:19:51Z,42.805,6.029,13.2990,4.60000,2470.264,2020-11-16T08:20:48Z
2020-11-16T06:22:54Z,42.805,6.029,13.2993,4.60002,2470.25,2020-11-16T08:23:51Z
2020-11-16T06:25:58Z,42.805,6.029,13.2997,4.60003,2470.287,2020-11-16T08:26:54Z
2020-11-16T06:29:01Z,42.805,6.029,13.2991,4.60026,2470.273,2020-11-16T08:29:57Z
2020-11-16T06:32:04Z,42.805,6.029,13.3015,4.60013,2470.273,2020-11-16T08:33:00Z
2020-11-16T06:35:07Z,42.805,6.029,13.3014,4.60028,2470.273,2020-11-16T08:36:03Z
2020-11-16T06:38:10Z,42.805,6.029,13.3011,4.59992,2470.297,2020-11-16T08:39:07Z
2020-11-16T06:41:13Z,42.805,6.029,13.2981,4.59996,2470.273,2020-11-16T08:42:10Z
2020-11-16T06:44:16Z,42.805,6.029,13.2992,4.59984,2470.273,2020-11-16T08:45:13Z
2020-11-16T06:47:19Z,42.805,6.029,13.2993,4.60006,2470.306,2020-11-16T08:48:16Z
2020-11-16T06:50:22Z,42.805,6.029,13.2990,4.59999,2470.31,2020-11-16T08:51:19Z
2020-11-16T06:53:26Z,42.805,6.029,13.2984,4.59996,2470.297,2020-11-16T08:54:22Z
2020-11-16T06:56:29Z,42.805,6.029,13.2982,4.60021,2470.297,2020-11-16T08:57:25Z
2020-11-16T06:59:32Z,42.805,6.029,13.2990,4.60027,2470.32,2020-11-16T09:00:28Z
2020-11-16T07:02:35Z,42.805,6.029,13.3017,4.60038,2470.297,2020-11-16T09:03:32Z
2020-11-16T07:05:38Z,42.805,6.029,13.2994,4.60003,2470.32,2020-11-16T09:06:35Z
2020-11-16T07:08:41Z,42.805,6.029,13.2991,4.59999,2470.334,2020-11-16T09:09:38Z
2020-11-16T07:11:44Z,42.805,6.029,13.2982,4.60001,2470.287,2020-11-16T09:12:41Z
2020-11-16T07:14:47Z,42.805,6.029,13.2993,4.59998,2470.32,2020-11-16T09:15:44Z
2020-11-16T07:17:51Z,42.805,6.029,13.2990,4.60003,2470.32,2020-11-16T09:18:47Z
2020-11-16T07:20:54Z,42.805,6.029,13.2989,4.59999,2470.32,2020-11-16T09:21:50Z
2020-11-16T07:23:57Z,42.805,6.029,13.2992,4.60040,2470.32,2020-11-16T09:24:53Z
2020-11-16T07:27:00Z,42.805,6.029,13.3005,4.60033,2470.297,2020-11-16T09:27:57Z
2020-11-16T07:30:03Z,42.805,6.029,13.3009,4.60013,2470.32,2020-11-16T09:31:00Z
2020-11-16T07:33:06Z,42.805,6.029,13.2996,4.60005,2470.32,2020-11-16T09:34:03Z
2020-11-16T07:36:09Z,42.805,6.029,13.2985,4.59999,2470.297,2020-11-16T09:37:06Z
2020-11-16T07:39:12Z,42.805,6.029,13.2983,4.59999,2470.297,2020-11-16T09:40:09Z
2020-11-16T07:42:16Z,42.805,6.029,13.2993,4.59996,2470.334,2020-11-16T09:43:12Z
2020-11-16T07:45:19Z,42.805,6.029,13.3007,4.59985,2470.32,2020-11-16T09:46:15Z
2020-11-16T07:48:22Z,42.805,6.029,13.2989,4.60008,2470.32,2020-11-16T09:49:18Z
2020-11-16T07:51:25Z,42.805,6.029,13.2993,4.60009,2470.343,2020-11-16T09:52:21Z
2020-11-16T07:54:28Z,42.805,6.029,13.2998,4.59997,2470.32,2020-11-16T09:55:25Z
2020-11-16T07:57:31Z,42.805,6.029,13.2990,4.59991,2470.343,2020-11-16T09:58:28Z
2020-11-16T08:00:34Z,42.805,6.029,13.2986,4.60010,2470.283,2020-11-16T10:01:31Z
2020-11-16T08:03:37Z,42.805,6.029,13.2993,4.59986,2470.343,2020-11-16T10:04:34Z
2020-11-16T08:06:41Z,42.805,6.029,13.2981,4.60003,2470.343,2020-11-16T10:07:37Z
2020-11-16T08:09:44Z,42.805,6.029,13.2985,4.59996,2470.32,2020-11-16T10:10:40Z
2020-11-16T08:12:47Z,42.805,6.029,13.2990,4.60012,2470.334,2020-11-16T10:13:43Z
2020-11-16T08:15:50Z,42.805,6.029,13.2994,4.60003,2470.297,2020-11-16T10:16:47Z
2020-11-16T08:18:53Z,42.805,6.029,13.2998,4.60017,2470.357,2020-11-16T10:19:50Z
2020-11-16T08:21:56Z,42.805,6.029,13.2996,4.60010,2470.334,2020-11-16T10:22:53Z
2020-11-16T08:24:59Z,42.805,6.029,13.2990,4.60017,2470.32,2020-11-16T10:25:56Z
2020-11-16T08:28:02Z,42.805,6.029,13.2988,4.59998,2470.31,2020-11-16T10:28:59Z
2020-11-16T08:31:06Z,42.805,6.029,13.2988,4.60011,2470.32,2020-11-16T10:32:02Z
2020-11-16T08:34:09Z,42.805,6.029,13.2990,4.60013,2470.297,2020-11-16T10:35:05Z
2020-11-16T08:37:12Z,42.805,6.029,13.2998,4.59996,2470.32,2020-11-16T10:38:08Z
2020-11-16T08:40:15Z,42.805,6.029,13.2990,4.60000,2470.306,2020-11-16T10:41:12Z
2020-11-16T08:43:18Z,42.805,6.029,13.2996,4.60008,2470.297,2020-11-16T10:44:15Z
2020-11-16T08:46:21Z,42.805,6.029,13.2996,4.59997,2470.297,2020-11-16T10:47:18Z
2020-11-16T08:49:24Z,42.805,6.029,13.2995,4.59995,2470.32,2020-11-16T10:50:21Z
2020-11-16T08:52:27Z,42.805,6.029,13.2984,4.59988,2470.343,2020-11-16T10:53:24Z
2020-11-16T08:55:31Z,42.805,6.029,13.2987,4.60021,2470.297,2020-11-16T10:56:27Z
2020-11-16T08:58:34Z,42.805,6.029,13.2992,4.60005,2470.31,2020-11-16T10:59:30Z
2020-11-16T09:01:37Z,42.805,6.029,13.2997,4.60001,2470.297,2020-11-16T11:02:33Z
2020-11-16T09:04:40Z,42.805,6.029,13.2986,4.60011,2470.287,2020-11-16T11:05:37Z
2020-11-16T09:07:43Z,42.805,6.029,13.2996,4.60015,2470.287,2020-11-16T11:08:40Z
2020-11-16T09:10:46Z,42.805,6.029,13.2994,4.59999,2470.32,2020-11-16T11:11:43Z
2020-11-16T09:13:49Z,42.805,6.029,13.2981,4.59983,2470.273,2020-11-16T11:14:46Z
2020-11-16T09:16:52Z,42.805,6.029,13.2983,4.60008,2470.31,2020-11-16T11:17:49Z
2020-11-16T09:19:56Z,42.805,6.029,13.2996,4.59986,2470.297,2020-11-16T11:20:52Z
2020-11-16T09:22:59Z,42.805,6.029,13.2986,4.59981,2470.297,2020-11-16T11:23:55Z
2020-11-16T09:26:02Z,42.805,6.029,13.2977,4.59992,2470.26,2020-11-16T11:26:58Z
2020-11-16T09:29:05Z,42.805,6.029,13.2977,4.59991,2470.273,2020-11-16T11:30:02Z
2020-11-16T09:32:08Z,42.805,6.029,13.2983,4.59996,2470.287,2020-11-16T11:33:05Z
2020-11-16T09:35:11Z,42.805,6.029,13.2993,4.59999,2470.287,2020-11-16T11:36:08Z
2020-11-16T09:38:14Z,42.805,6.029,13.2988,4.60009,2470.287,2020-11-16T11:39:11Z
2020-11-16T09:41:18Z,42.805,6.029,13.2984,4.60009,2470.264,2020-11-16T11:42:14Z
2020-11-16T09:44:21Z,42.805,6.029,13.2986,4.60009,2470.25,2020-11-16T11:45:17Z
2020-11-16T09:47:24Z,42.805,6.029,13.2983,4.59999,2470.25,2020-11-16T11:48:20Z
2020-11-16T09:50:27Z,42.805,6.029,13.2991,4.60016,2470.273,2020-11-16T11:51:24Z
2020-11-16T09:53:30Z,42.805,6.029,13.2990,4.60017,2470.273,2020-11-16T11:54:27Z
2020-11-16T09:56:33Z,42.805,6.029,13.2998,4.60001,2470.26,2020-11-16T11:57:30Z
2020-11-16T09:59:36Z,42.805,6.029,13.2987,4.60009,2470.273,2020-11-16T12:00:33Z
2020-11-16T10:02:39Z,42.805,6.029,13.3000,4.60014,2470.25,2020-11-16T12:03:36Z
2020-11-16T10:05:43Z,42.805,6.029,13.2987,4.60007,2470.264,2020-11-16T12:06:39Z
2020-11-16T10:08:46Z,42.805,6.029,13.3005,4.60007,2470.25,2020-11-16T12:09:42Z
2020-11-16T10:11:49Z,42.805,6.029,13.2991,4.59991,2470.264,2020-11-16T12:12:45Z
2020-11-16T10:14:52Z,42.805,6.029,13.2982,4.59991,2470.264,2020-11-16T12:15:49Z
2020-11-16T10:17:55Z,42.805,6.029,13.2988,4.59997,2470.273,2020-11-16T12:18:52Z
2020-11-16T10:20:58Z,42.805,6.029,13.2987,4.60011,2470.25,2020-11-16T12:21:55Z
2020-11-16T10:24:01Z,42.805,6.029,13.3011,4.60033,2470.227,2020-11-16T12:24:58Z
2020-11-16T10:27:04Z,42.805,6.029,13.3001,4.60002,2470.227,2020-11-16T12:28:01Z
2020-11-16T10:30:08Z,42.805,6.029,13.2982,4.60014,2470.24,2020-11-16T12:31:04Z
2020-11-16T10:33:11Z,42.805,6.029,13.3009,4.60009,2470.227,2020-11-16T12:34:07Z
2020-11-16T10:36:14Z,42.805,6.029,13.2977,4.59987,2470.227,2020-11-16T12:37:10Z
2020-11-16T10:39:17Z,42.805,6.029,13.2985,4.59996,2470.25,2020-11-16T12:40:14Z
2020-11-16T10:42:20Z,42.805,6.029,13.2993,4.59999,2470.227,2020-11-16T12:43:17Z
2020-11-16T10:45:23Z,42.805,6.029,13.3000,4.59999,2470.24,2020-11-16T12:46:20Z
2020-11-16T10:48:26Z,42.805,6.029,13.2993,4.59993,2470.227,2020-11-16T12:49:23Z
2020-11-16T10:51:29Z,42.805,6.029,13.3009,4.60003,2470.25,2020-11-16T12:52:26Z
2020-11-16T10:54:33Z,42.805,6.029,13.2997,4.59998,2470.227,2020-11-16T12:55:29Z
2020-11-16T10:57:36Z,42.805,6.029,13.2979,4.60016,2470.227,2020-11-16T12:58:32Z
2020-11-16T11:00:39Z,42.805,6.029,13.2983,4.60001,2470.24,2020-11-16T13:01:35Z
2020-11-16T11:03:42Z,42.805,6.029,13.2986,4.59994,2470.227,2020-11-16T13:04:39Z
2020-11-16T11:06:45Z,42.805,6.029,13.2997,4.59994,2470.194,2020-11-16T13:07:42Z
2020-11-16T11:09:48Z,42.805,6.029,13.2976,4.59985,2470.203,2020-11-16T13:10:45Z
2020-11-16T11:12:51Z,42.805,6.029,13.2993,4.60014,2470.24,2020-11-16T13:13:48Z
2020-11-16T11:15:55Z,42.805,6.029,13.2988,4.59997,2470.217,2020-11-16T13:16:51Z
2020-11-16T11:18:58Z,42.805,6.029,13.2991,4.59999,2470.217,2020-11-16T13:19:54Z
2020-11-16T11:22:01Z,42.805,6.029,13.2987,4.59995,2470.203,2020-11-16T13:22:57Z
2020-11-16T11:25:04Z,42.805,6.029,13.2983,4.59994,2470.18,2020-11-16T13:26:01Z
2020-11-16T11:28:07Z,42.805,6.029,13.2991,4.59988,2470.217,2020-11-16T13:29:04Z
2020-11-16T11:31:10Z,42.805,6.029,13.2989,4.59999,2470.217,2020-11-16T13:32:07Z
2020-11-16T11:34:13Z,42.805,6.029,13.2975,4.59993,2470.18,2020-11-16T13:35:10Z
2020-11-16T11:37:16Z,42.805,6.029,13.3003,4.60017,2470.18,2020-11-16T13:38:13Z
2020-11-16T11:40:20Z,42.805,6.029,13.2998,4.60016,2470.171,2020-11-16T13:41:16Z
2020-11-16T11:43:23Z,42.805,6.029,13.2980,4.59991,2470.194,2020-11-16T13:44:19Z
2020-11-16T11:46:26Z,42.805,6.029,13.2993,4.59999,2470.18,2020-11-16T13:47:22Z
2020-11-16T11:49:29Z,42.805,6.029,13.2991,4.59988,2470.156,2020-11-16T13:50:26Z
2020-11-16T11:52:32Z,42.805,6.029,13.2981,4.60002,2470.171,2020-11-16T13:53:29Z
2020-11-16T11:55:35Z,42.805,6.029,13.2983,4.59996,2470.18,2020-11-16T13:56:32Z
2020-11-16T11:58:38Z,42.805,6.029,13.2983,4.60009,2470.18,2020-11-16T13:59:35Z
2020-11-16T12:01:41Z,42.805,6.029,13.2983,4.59998,2470.194,2020-11-16T14:02:38Z
2020-11-16T12:04:45Z,42.805,6.029,13.2988,4.59998,2470.18,2020-11-16T14:05:41Z
2020-11-16T12:07:48Z,42.805,6.029,13.2992,4.59993,2470.18,2020-11-16T14:08:44Z
2020-11-16T12:10:51Z,42.805,6.029,13.2980,4.60005,2470.18,2020-11-16T14:11:47Z
2020-11-16T12:13:54Z,42.805,6.029,13.2982,4.59995,2470.147,2020-11-16T14:14:51Z
2020-11-16T12:16:57Z,42.805,6.029,13.2979,4.60009,2470.194,2020-11-16T14:17:54Z
2020-11-16T12:20:00Z,42.805,6.029,13.2991,4.60001,2470.133,2020-11-16T14:20:57Z
2020-11-16T12:23:03Z,42.805,6.029,13.2989,4.60011,2470.156,2020-11-16T14:24:00Z
2020-11-16T12:26:06Z,42.805,6.029,13.2977,4.60006,2470.156,2020-11-16T14:27:03Z
2020-11-16T12:29:10Z,42.805,6.029,13.2983,4.59999,2470.156,2020-11-16T14:30:06Z
2020-11-16T12:32:13Z,42.805,6.029,13.2993,4.60029,2470.147,2020-11-16T14:33:09Z
2020-11-16T12:35:16Z,42.805,6.029,13.2996,4.60025,2470.171,2020-11-16T14:36:12Z
2020-11-16T12:38:19Z,42.805,6.029,13.2991,4.60001,2470.133,2020-11-16T14:39:16Z
2020-11-16T12:41:22Z,42.805,6.029,13.3000,4.60016,2470.147,2020-11-16T14:42:19Z
2020-11-16T12:44:25Z,42.805,6.029,13.2992,4.60014,2470.133,2020-11-16T14:45:22Z
2020-11-16T12:47:28Z,42.805,6.029,13.2990,4.59991,2470.18,2020-11-16T14:48:25Z
2020-11-16T12:50:31Z,42.805,6.029,13.2989,4.60002,2470.11,2020-11-16T14:51:28Z
2020-11-16T12:53:35Z,42.805,6.029,13.2986,4.59996,2470.156,2020-11-16T14:54:31Z
2020-11-16T12:56:38Z,42.805,6.029,13.2986,4.60005,2470.147,2020-11-16T14:57:34Z
2020-11-16T12:59:41Z,42.805,6.029,13.2982,4.60007,2470.124,2020-11-16T15:00:37Z
2020-11-16T13:02:44Z,42.805,6.029,13.2987,4.59994,2470.147,2020-11-16T15:03:41Z
2020-11-16T13:05:47Z,42.805,6.029,13.2985,4.60001,2470.124,2020-11-16T15:06:44Z
2020-11-16T13:08:50Z,42.805,6.029,13.2985,4.59991,2470.087,2020-11-16T15:09:47Z
2020-11-16T13:11:53Z,42.805,6.029,13.2982,4.59992,2470.087,2020-11-16T15:12:50Z
2020-11-16T13:14:56Z,42.805,6.029,13.2986,4.60016,2470.147,2020-11-16T15:15:53Z
2020-11-16T13:18:00Z,42.805,6.029,13.3003,4.60004,2470.133,2020-11-16T15:18:56Z
2020-11-16T13:21:03Z,42.805,6.029,13.2996,4.59988,2470.1,2020-11-16T15:21:59Z
2020-11-16T13:24:06Z,42.805,6.029,13.2983,4.60002,2470.124,2020-11-16T15:25:02Z
2020-11-16T13:27:09Z,42.805,6.029,13.2987,4.60009,2470.11,2020-11-16T15:28:06Z
2020-11-16T13:30:12Z,42.805,6.029,13.3011,4.60016,2470.087,2020-11-16T15:31:09Z
2020-11-16T13:33:15Z,42.805,6.029,13.2983,4.59985,2470.087,2020-11-16T15:34:12Z
2020-11-16T13:36:18Z,42.805,6.029,13.2979,4.59994,2470.133,2020-11-16T15:37:15Z
2020-11-16T13:39:21Z,42.805,6.029,13.2985,4.59997,2470.147,2020-11-16T15:40:18Z
2020-11-16T13:42:25Z,42.805,6.029,13.2987,4.60002,2470.11,2020-11-16T15:43:21Z
2020-11-16T13:45:28Z,42.805,6.029,13.2986,4.60010,2470.087,2020-11-16T15:46:24Z
2020-11-16T13:48:31Z,42.805,6.029,13.3001,4.60009,2470.124,2020-11-16T15:49:27Z
2020-11-16T13:51:34Z,42.805,6.029,13.2990,4.60021,2470.087,2020-11-16T15:52:31Z
2020-11-16T13:54:37Z,42.805,6.029,13.2990,4.60015,2470.1,2020-11-16T15:55:34Z
2020-11-16T13:57:40Z,42.805,6.029,13.3003,4.60031,2470.124,2020-11-16T15:58:37Z
2020-11-16T14:00:43Z,42.805,6.029,13.3018,4.60049,2470.087,2020-11-16T16:01:40Z
2020-11-16T14:03:46Z,42.805,6.029,13.2997,4.60020,2470.1,2020-11-16T16:04:43Z
2020-11-16T14:06:50Z,42.805,6.029,13.3010,4.59994,2470.11,2020-11-16T16:07:46Z
2020-11-16T14:09:53Z,42.805,6.029,13.3000,4.59990,2470.087,2020-11-16T16:10:49Z
2020-11-16T14:12:56Z,42.805,6.029,13.2986,4.60003,2470.11,2020-11-16T16:13:53Z
2020-11-16T14:15:59Z,42.805,6.029,13.3006,4.59996,2470.087,2020-11-16T16:16:56Z
2020-11-16T14:19:02Z,42.805,6.029,13.3000,4.60016,2470.1,2020-11-16T16:19:59Z
2020-11-16T14:22:05Z,42.805,6.029,13.2992,4.60009,2470.1,2020-11-16T16:23:02Z
2020-11-16T14:25:08Z,42.805,6.029,13.2995,4.60011,2470.1,2020-11-16T16:26:05Z
2020-11-16T14:28:12Z,42.805,6.029,13.2990,4.60031,2470.087,2020-11-16T16:29:08Z
2020-11-16T14:31:15Z,42.805,6.029,13.3004,4.60021,2470.1,2020-11-16T16:32:11Z
2020-11-16T14:34:18Z,42.805,6.029,13.3015,4.60001,2470.1,2020-11-16T16:35:14Z
2020-11-16T14:37:21Z,42.805,6.029,13.2993,4.60016,2470.077,2020-11-16T16:38:18Z
2020-11-16T14:40:24Z,42.805,6.029,13.2998,4.60006,2470.077,2020-11-16T16:41:21Z
2020-11-16T14:43:27Z,42.805,6.029,13.3006,4.59991,2470.087,2020-11-16T16:44:24Z
2020-11-16T14:46:30Z,42.805,6.029,13.3010,4.60013,2470.124,2020-11-16T16:47:27Z
2020-11-16T14:49:33Z,42.805,6.029,13.2988,4.59996,2470.063,2020-11-16T16:50:30Z
2020-11-16T14:52:37Z,42.805,6.029,13.2993,4.60044,2470.087,2020-11-16T16:53:33Z
2020-11-16T14:55:40Z,42.805,6.029,13.3010,4.60058,2470.087,2020-11-16T16:56:36Z
2020-11-16T14:58:43Z,42.805,6.029,13.3024,4.60023,2470.087,2020-11-16T16:59:39Z
2020-11-16T15:01:46Z,42.805,6.029,13.2994,4.60003,2470.087,2020-11-16T17:02:43Z